Location: Home
(42.5358°N, 72.7383°W)
Time: 12:32:29
(UTC-05:00)

A-11 Canister half - Pass Details

Date: 03 December 2021
Orbit: 1524 x 1684 km, 47.3° (Epoch: 26 January)

Event Time Altitude Azimuth Distance (km) Brightness Sun altitude
Rises 04:27:38 0° 276° (W) 4,935 - -28.0°
Reaches altitude 10° 04:30:52 10° 279° (W) 3,940 - -27.4°
Exits shadow 04:37:07 42° 295° (WNW) 2,234 9.3 -26.2°
Maximum altitude 04:40:58 67° 2° (N) 1,764 9.2 -25.5°
Drops below altitude 10° 04:50:47 10° 85° (E) 3,838 12.1 -23.8°
Sets 04:53:54 0° 88° (E) 4,802 13.0 -23.2°
